Regional Weather Roundup
Issued by NWS

Home | Current Version | Previous Version | Graphics & Text | Print | Product List | Glossary On
Versions: 1 2 3 4 5 6 7 8 9 10 11 12 13 14 15 16 17 18 19 20 21 22 23 24 25 26 27 28 29 30 31 32 33 34 35 36 37 38 39 40 41 42 43 44 45 46 47 48 49 50
445
ASUS44 KLIX 260505
RWRLA
LOUISIANA WEATHER ROUNDUP
NATIONAL WEATHER SERVICE NEW ORLEANS LA
1200 AM CDT SUN OCT 26 2014

NOTE: "FAIR" INDICATES FEW OR NO CLOUDS BELOW 12,000 FEET WITH NO
      SIGNIFICANT WEATHER AND/OR OBSTRUCTIONS TO VISIBILITY.
      SKY/WX - SKY CONDITION AND SIGNIFICANT WEATHER.
      TMP - AIR TEMPERATURE.    DP   - DEWPOINT TEMPERATURE.
      RH  - RELATIVE HUMIDITY.  PRES - PRESSURE.
      HX  - HEAT INDEX.         WCI  - WIND CHILL INDEX.

*  THESE STATIONS ARE NOT NWS OR FAA STATIONS AND ARE NOT UNDER
   NWS QUALITY CONTROL.

LAZ040-048-061>063-065-066-069-260600-
SOUTHEAST LOUISIANA

CITY           SKY/WX    TMP DP  RH WIND       PRES   REMARKS
N.O. AUDUBON     N/A     65  61  86 MISG        N/A
N.O. INTL ARPT CLEAR     64  58  80 CALM      30.08F
N.O. LAKEFRONT CLEAR     72  64  76 NW8       30.08F
N.O. DOWNTOWN* FAIR      72  57  60 CALM      30.08F
SLIDELL        CLEAR     58  55  90 CALM      30.07F
BATON ROUGE    CLEAR     58  55  90 CALM      30.09F
BOOTHVILLE     CLEAR     65  61  87 CALM      30.08F
BELLE CHASSE   CLEAR     58  54  86 CALM      30.07F
BOGALUSA*      FAIR      59  56  89 CALM      30.10S
NEW ROADS*     FAIR      56  56  97 CALM      30.09F FOG
GONZALES*      FAIR      57  57 100 CALM      30.08F
HAMMOND*       CLEAR     59  55  88 CALM      30.09F
HOUMA*         CLEAR     57  56  96 CALM      30.08F
PORT FOURCHON* CLEAR     70  64  83 W5        30.11F

$$

LAZ041-044-053-054-260600-
SOUTHWEST LOUISIANA

CITY           SKY/WX    TMP DP  RH WIND       PRES   REMARKS
LAKE CHARLES   CLEAR     57  56  96 CALM      30.09F
LAFAYETTE      CLEAR     60  58  92 CALM      30.09F
PATTERSON        N/A     57  55  94 CALM      30.11F VSB 1/2
SALT POINT       N/A     67  64  90 CALM      30.08F
NEW IBERIA     CLEAR     59  55  87 CALM      30.09F
CHENAULT AIRPK CLEAR     58  55  91 CALM      30.10F

$$

LAZ027-028-260600-
CENTRAL LOUISIANA

CITY           SKY/WX    TMP DP  RH WIND       PRES   REMARKS
FORT POLK      CLEAR     58  55  89 CALM      30.08F
ALEXANDRIA INT CLEAR     58  56  93 CALM      30.07F
ALEXANDRIA     CLEAR     54  54 100 CALM      30.08F

$$

LAZ001-002-260600-
NORTHWEST LOUISIANA

CITY           SKY/WX    TMP DP  RH WIND       PRES   REMARKS
SHREVEPORT     CLEAR     66  62  87 CALM      30.06F
BARKSDALE AFB  CLEAR     64  61  92 SE5       30.06F
DTN SHREVEPORT CLEAR     68  61  78 CALM      30.06F

$$

LAZ014-016-260600-
NORTHEAST LOUISIANA

CITY           SKY/WX    TMP DP  RH WIND       PRES   REMARKS
MONROE         CLEAR     64  59  83 S3        30.07F
TALLULAH       CLEAR     59  56  89 CALM      30.07F

$$




USA.gov is the U.S. government's official web portal to all federal, state and local government web resources and services.